Time,TemperatureF,DewpointF,PressureIn,WindDirection,WindDirectionDegrees,WindSpeedMPH,WindSpeedGustMPH,Humidity,HourlyPrecipIn,Conditions,Clouds,dailyrainin,SoftwareType,DateUTC
2013-05-10 00:04:00,55.0,54.7,29.85,WNW,292,0.0,-999.0,99,-99.99,,,0.00,Acu-Link.com,2013-05-10 04:04:00,
2013-05-10 00:20:00,54.7,54.4,29.85,South,180,0.0,-999.0,99,-99.99,,,0.00,Acu-Link.com,2013-05-10 04:20:00,
2013-05-10 00:35:00,54.1,53.8,29.85,WNW,292,0.0,-999.0,99,-99.99,,,0.00,Acu-Link.com,2013-05-10 04:35:00,
2013-05-10 00:50:00,54.0,53.7,29.85,WSW,247,0.0,-999.0,99,-99.99,,,0.00,Acu-Link.com,2013-05-10 04:50:00,
2013-05-10 01:06:00,53.8,53.5,29.85,NW,315,0.0,-999.0,99,-99.99,,,0.00,Acu-Link.com,2013-05-10 05:06:00,
2013-05-10 01:21:00,53.6,53.3,29.84,SSW,202,0.0,-999.0,99,-99.99,,,0.00,Acu-Link.com,2013-05-10 05:21:00,
2013-05-10 01:36:00,53.4,53.1,29.84,WNW,292,0.0,-999.0,99,-99.99,,,0.00,Acu-Link.com,2013-05-10 05:36:00,
2013-05-10 01:51:00,52.9,52.6,29.84,WSW,247,0.0,-999.0,99,-99.99,,,0.00,Acu-Link.com,2013-05-10 05:51:00,
2013-05-10 02:07:00,52.7,52.4,29.84,West,270,0.0,-999.0,99,-99.99,,,0.00,Acu-Link.com,2013-05-10 06:07:00,
2013-05-10 02:22:00,52.2,51.9,29.83,West,270,0.0,-999.0,99,-99.99,,,0.00,Acu-Link.com,2013-05-10 06:22:00,
2013-05-10 02:38:00,51.4,51.1,29.84,West,270,0.0,-999.0,99,-99.99,,,0.00,Acu-Link.com,2013-05-10 06:38:00,
2013-05-10 02:53:00,51.3,51.0,29.85,SW,225,0.0,-999.0,99,-99.99,,,0.00,Acu-Link.com,2013-05-10 06:53:00,
2013-05-10 03:08:00,51.1,50.8,29.85,West,270,0.0,-999.0,99,-99.99,,,0.00,Acu-Link.com,2013-05-10 07:08:00,
2013-05-10 03:23:00,50.7,50.4,29.85,WSW,247,0.0,-999.0,99,-99.99,,,0.00,Acu-Link.com,2013-05-10 07:23:00,
2013-05-10 03:39:00,50.4,50.1,29.86,WSW,247,0.0,-999.0,99,-99.99,,,0.00,Acu-Link.com,2013-05-10 07:39:00,
2013-05-10 03:54:00,50.0,49.7,29.86,WSW,247,0.0,-999.0,99,-99.99,,,0.00,Acu-Link.com,2013-05-10 07:54:00,
2013-05-10 04:11:00,49.8,49.5,29.85,WSW,247,0.0,-999.0,99,-99.99,,,0.00,Acu-Link.com,2013-05-10 08:11:00,
2013-05-10 04:26:00,49.3,49.0,29.85,West,270,0.0,-999.0,99,-99.99,,,0.00,Acu-Link.com,2013-05-10 08:26:00,
2013-05-10 04:42:00,49.1,48.8,29.86,West,270,0.0,-999.0,99,-99.99,,,0.00,Acu-Link.com,2013-05-10 08:42:00,
2013-05-10 04:57:00,48.9,48.6,29.86,South,180,0.0,-999.0,99,-99.99,,,0.00,Acu-Link.com,2013-05-10 08:57:00,
2013-05-10 05:12:00,49.1,48.8,29.87,East,90,0.0,-999.0,99,-99.99,,,0.00,Acu-Link.com,2013-05-10 09:12:00,
2013-05-10 05:27:00,49.3,49.0,29.88,SE,135,0.0,-999.0,99,-99.99,,,0.00,Acu-Link.com,2013-05-10 09:27:00,
2013-05-10 05:42:00,49.3,49.0,29.88,ESE,112,0.0,-999.0,99,-99.99,,,0.00,Acu-Link.com,2013-05-10 09:42:00,
2013-05-10 05:58:00,49.6,49.3,29.88,SE,135,0.0,-999.0,99,-99.99,,,0.00,Acu-Link.com,2013-05-10 09:58:00,
2013-05-10 06:13:00,50.2,49.9,29.88,East,90,0.0,-999.0,99,-99.99,,,0.00,Acu-Link.com,2013-05-10 10:13:00,
2013-05-10 06:28:00,50.5,50.2,29.89,South,180,0.0,-999.0,99,-99.99,,,0.00,Acu-Link.com,2013-05-10 10:28:00,
2013-05-10 06:43:00,51.1,50.8,29.89,SSW,202,0.0,-999.0,99,-99.99,,,0.00,Acu-Link.com,2013-05-10 10:43:00,
2013-05-10 06:58:00,52.9,52.6,29.89,South,180,0.0,-999.0,99,-99.99,,,0.00,Acu-Link.com,2013-05-10 10:58:00,
2013-05-10 07:13:00,54.9,54.6,29.90,ESE,112,0.0,-999.0,99,-99.99,,,0.00,Acu-Link.com,2013-05-10 11:13:00,
2013-05-10 07:29:00,56.5,55.4,29.90,SE,135,0.0,-999.0,96,-99.99,,,0.00,Acu-Link.com,2013-05-10 11:29:00,
2013-05-10 07:44:00,59.2,57.2,29.90,ESE,112,0.0,-999.0,93,-99.99,,,0.00,Acu-Link.com,2013-05-10 11:44:00,
2013-05-10 07:59:00,59.9,57.0,29.90,South,180,0.0,-999.0,90,-99.99,,,0.00,Acu-Link.com,2013-05-10 11:59:00,
2013-05-10 08:15:00,62.6,58.3,29.90,South,180,2.2,-999.0,86,-99.99,,,0.00,Acu-Link.com,2013-05-10 12:15:00,
2013-05-10 08:30:00,64.4,59.8,29.91,SE,135,0.0,-999.0,85,-99.99,,,0.00,Acu-Link.com,2013-05-10 12:30:00,
2013-05-10 08:45:00,68.0,60.5,29.91,North,0,2.2,-999.0,77,-99.99,,,0.00,Acu-Link.com,2013-05-10 12:45:00,
2013-05-10 09:00:00,68.7,60.1,29.91,South,180,0.0,-999.0,74,-99.99,,,0.00,Acu-Link.com,2013-05-10 13:00:00,
2013-05-10 09:16:00,68.4,59.8,29.90,West,270,2.2,-999.0,74,-99.99,,,0.00,Acu-Link.com,2013-05-10 13:16:00,
2013-05-10 09:31:00,67.6,60.1,29.90,South,180,1.7,-999.0,77,-99.99,,,0.00,Acu-Link.com,2013-05-10 13:31:00,
2013-05-10 09:46:00,68.5,60.3,29.90,West,270,3.7,-999.0,75,-99.99,,,0.00,Acu-Link.com,2013-05-10 13:46:00,
2013-05-10 10:01:00,66.7,59.3,29.90,SSW,202,2.7,-999.0,77,-99.99,,,0.00,Acu-Link.com,2013-05-10 14:01:00,
2013-05-10 10:17:00,68.7,60.1,29.90,South,180,1.1,-999.0,74,-99.99,,,0.00,Acu-Link.com,2013-05-10 14:17:00,
2013-05-10 10:32:00,67.8,59.6,29.89,South,180,3.2,-999.0,75,-99.99,,,0.00,Acu-Link.com,2013-05-10 14:32:00,
2013-05-10 10:47:00,68.5,59.5,29.90,SE,135,3.7,-999.0,73,-99.99,,,0.00,Acu-Link.com,2013-05-10 14:47:00,
2013-05-10 11:03:00,69.6,59.8,29.90,South,180,2.2,-999.0,71,-99.99,,,0.00,Acu-Link.com,2013-05-10 15:03:00,
2013-05-10 11:18:00,72.3,61.1,29.90,SSE,157,1.7,-999.0,68,-99.99,,,0.00,Acu-Link.com,2013-05-10 15:18:00,
2013-05-10 11:33:00,71.8,60.7,29.90,ESE,112,3.7,-999.0,68,-99.99,,,0.00,Acu-Link.com,2013-05-10 15:33:00,
2013-05-10 11:48:00,72.9,60.4,29.88,SSE,157,3.2,-999.0,65,-99.99,,,0.00,Acu-Link.com,2013-05-10 15:48:00,
2013-05-10 12:04:00,69.8,57.9,29.88,SSE,157,3.7,-999.0,66,-99.99,,,0.00,Acu-Link.com,2013-05-10 16:04:00,
2013-05-10 12:19:00,70.2,58.7,29.89,SSE,157,3.7,-999.0,67,-99.99,,,0.00,Acu-Link.com,2013-05-10 16:19:00,
2013-05-10 12:34:00,73.0,60.1,29.88,South,180,3.2,-999.0,64,-99.99,,,0.00,Acu-Link.com,2013-05-10 16:34:00,
2013-05-10 12:50:00,72.7,58.0,29.87,ESE,112,2.7,-999.0,60,-99.99,,,0.00,Acu-Link.com,2013-05-10 16:50:00,
2013-05-10 13:05:00,72.7,57.5,29.87,SE,135,3.2,-999.0,59,-99.99,,,0.00,Acu-Link.com,2013-05-10 17:05:00,
2013-05-10 13:20:00,73.2,57.5,29.88,SSW,202,4.7,-999.0,58,-99.99,,,0.00,Acu-Link.com,2013-05-10 17:20:00,
2013-05-10 13:36:00,74.3,57.1,29.87,SE,135,2.7,-999.0,55,-99.99,,,0.00,Acu-Link.com,2013-05-10 17:36:00,
2013-05-10 13:51:00,75.0,56.7,29.88,NW,315,8.3,-999.0,53,-99.99,,,0.00,Acu-Link.com,2013-05-10 17:51:00,
2013-05-10 14:06:00,74.8,55.4,29.88,NW,315,5.8,-999.0,51,-99.99,,,0.00,Acu-Link.com,2013-05-10 18:06:00,
2013-05-10 14:21:00,75.9,55.4,29.87,WSW,247,5.3,-999.0,49,-99.99,,,0.00,Acu-Link.com,2013-05-10 18:21:00,
2013-05-10 14:37:00,75.7,56.3,29.87,South,180,2.7,-999.0,51,-99.99,,,0.00,Acu-Link.com,2013-05-10 18:37:00,
2013-05-10 14:52:00,74.7,54.8,29.88,South,180,2.2,-999.0,50,-99.99,,,0.00,Acu-Link.com,2013-05-10 18:52:00,
2013-05-10 15:07:00,76.6,55.4,29.87,SSE,157,4.7,-999.0,48,-99.99,,,0.00,Acu-Link.com,2013-05-10 19:07:00,
2013-05-10 15:22:00,75.7,55.7,29.86,South,180,4.2,-999.0,50,-99.99,,,0.00,Acu-Link.com,2013-05-10 19:22:00,
2013-05-10 15:37:00,75.2,57.4,29.86,SSE,157,1.7,-999.0,54,-99.99,,,0.00,Acu-Link.com,2013-05-10 19:37:00,
2013-05-10 15:53:00,75.2,56.9,29.86,SSE,157,5.8,-999.0,53,-99.99,,,0.00,Acu-Link.com,2013-05-10 19:53:00,
2013-05-10 16:08:00,75.2,57.9,29.86,West,270,4.7,-999.0,55,-99.99,,,0.00,Acu-Link.com,2013-05-10 20:08:00,
2013-05-10 16:23:00,74.8,58.5,29.86,SSW,202,1.7,-999.0,57,-99.99,,,0.00,Acu-Link.com,2013-05-10 20:23:00,
2013-05-10 16:38:00,75.2,56.9,29.86,South,180,1.7,-999.0,53,-99.99,,,0.00,Acu-Link.com,2013-05-10 20:38:00,
2013-05-10 16:53:00,73.9,55.2,29.86,SW,225,2.7,-999.0,52,-99.99,,,0.00,Acu-Link.com,2013-05-10 20:53:00,
2013-05-10 17:09:00,70.7,55.7,29.86,ESE,112,1.1,-999.0,59,-99.99,,,0.00,Acu-Link.com,2013-05-10 21:09:00,
2013-05-10 17:24:00,71.4,56.3,29.86,South,180,2.2,-999.0,59,-99.99,,,0.00,Acu-Link.com,2013-05-10 21:24:00,
2013-05-10 17:40:00,69.3,55.7,29.85,SSE,157,2.2,-999.0,62,-99.99,,,0.00,Acu-Link.com,2013-05-10 21:40:00,
2013-05-10 17:55:00,69.8,55.7,29.85,South,180,2.7,-999.0,61,-99.99,,,0.00,Acu-Link.com,2013-05-10 21:55:00,
2013-05-10 18:10:00,68.9,55.3,29.85,SSE,157,1.7,-999.0,62,-99.99,,,0.00,Acu-Link.com,2013-05-10 22:10:00,
2013-05-10 18:26:00,69.1,55.5,29.85,NNW,337,1.7,-999.0,62,-99.99,,,0.00,Acu-Link.com,2013-05-10 22:26:00,
2013-05-10 18:41:00,68.2,56.0,29.86,ESE,112,1.7,-999.0,65,-99.99,,,0.00,Acu-Link.com,2013-05-10 22:41:00,
2013-05-10 18:57:00,66.7,55.8,29.87,SSE,157,3.7,-999.0,68,-99.99,,,0.00,Acu-Link.com,2013-05-10 22:57:00,
2013-05-10 19:12:00,65.5,55.8,29.87,ESE,112,1.1,-999.0,71,-99.99,,,0.00,Acu-Link.com,2013-05-10 23:12:00,
2013-05-10 19:27:00,64.6,55.7,29.87,ESE,112,0.0,-999.0,73,-99.99,,,0.00,Acu-Link.com,2013-05-10 23:27:00,
2013-05-10 19:42:00,63.1,55.4,29.87,SSE,157,0.0,-999.0,76,-99.99,,,0.00,Acu-Link.com,2013-05-10 23:42:00,
2013-05-10 19:58:00,62.8,55.5,29.87,ESE,112,0.0,-999.0,77,-99.99,,,0.00,Acu-Link.com,2013-05-10 23:58:00,
2013-05-10 20:13:00,62.1,55.2,29.87,East,90,0.0,-999.0,78,-99.99,,,0.00,Acu-Link.com,2013-05-11 00:13:00,
2013-05-10 20:28:00,61.3,55.1,29.86,SSW,202,0.0,-999.0,80,-99.99,,,0.00,Acu-Link.com,2013-05-11 00:28:00,
2013-05-10 20:43:00,60.8,55.3,29.86,SE,135,0.0,-999.0,82,-99.99,,,0.00,Acu-Link.com,2013-05-11 00:43:00,
2013-05-10 20:59:00,60.1,54.6,29.87,NNE,22,0.0,-999.0,82,-99.99,,,0.00,Acu-Link.com,2013-05-11 00:59:00,
2013-05-10 21:14:00,59.5,54.7,29.87,SSE,157,0.0,-999.0,84,-99.99,,,0.00,Acu-Link.com,2013-05-11 01:14:00,
2013-05-10 21:29:00,59.2,54.7,29.88,WSW,247,0.0,-999.0,85,-99.99,,,0.00,Acu-Link.com,2013-05-11 01:29:00,
2013-05-10 21:45:00,58.8,54.6,29.87,WSW,247,0.0,-999.0,86,-99.99,,,0.00,Acu-Link.com,2013-05-11 01:45:00,
2013-05-10 22:00:00,58.6,54.7,29.87,WSW,247,0.0,-999.0,87,-99.99,,,0.00,Acu-Link.com,2013-05-11 02:00:00,
2013-05-10 22:15:00,58.3,54.8,29.87,WSW,247,0.0,-999.0,88,-99.99,,,0.00,Acu-Link.com,2013-05-11 02:15:00,
2013-05-10 22:30:00,58.1,54.6,29.87,South,180,0.0,-999.0,88,-99.99,,,0.00,Acu-Link.com,2013-05-11 02:30:00,
2013-05-10 22:46:00,57.6,54.1,29.88,SE,135,0.0,-999.0,88,-99.99,,,0.00,Acu-Link.com,2013-05-11 02:46:00,
2013-05-10 23:01:00,56.8,53.9,29.87,SW,225,0.0,-999.0,90,-99.99,,,0.00,Acu-Link.com,2013-05-11 03:01:00,
2013-05-10 23:16:00,56.5,53.9,29.86,SW,225,0.0,-999.0,91,-99.99,,,0.00,Acu-Link.com,2013-05-11 03:16:00,
2013-05-10 23:32:00,56.1,53.5,29.86,SW,225,0.0,-999.0,91,-99.99,,,0.00,Acu-Link.com,2013-05-11 03:32:00,
2013-05-10 23:47:00,55.8,53.2,29.86,SW,225,0.0,-999.0,91,-99.99,,,0.00,Acu-Link.com,2013-05-11 03:47:00,